| time (UTC) | temp F | wind direction | speed MPH | gust MPH | rain 1hr in | rain 24hr in | rain mn in | humidity % | barometer mb |
| 20260506201514 | 66 | 264 | 5.0 | 13.0 | 0.00 | 0.08 | 0.08 | 82 | 1007.2 |
| 20260506200022 | 65 | 245 | 4.0 | 15.0 | 0.00 | 0.08 | 0.08 | 83 | 1007.6 |
| 20260506194523 | 65 | 275 | 2.0 | 10.0 | 0.00 | 0.08 | 0.08 | 83 | 1007.8 |
| 20260506193015 | 64 | 198 | 3.0 | 17.0 | 0.00 | 0.08 | 0.08 | 83 | 1007.9 |
| 20260506190023 | 64 | 248 | 2.0 | 19.0 | 0.00 | 0.08 | 0.08 | 83 | 1008.1 |
| 20260506184527 | 64 | 192 | 3.0 | 21.0 | 0.00 | 0.08 | 0.08 | 83 | 1008.1 |
| 20260506183013 | 64 | 234 | 5.0 | 15.0 | 0.00 | 0.08 | 0.08 | 83 | 1008.2 |
| 20260506180027 | 64 | 245 | 3.0 | 10.0 | 0.00 | 0.08 | 0.08 | 85 | 1008.6 |
| 20260506174528 | 64 | 219 | 1.0 | 7.0 | 0.00 | 0.08 | 0.08 | 86 | 1008.5 |
| 20260506173015 | 64 | 307 | 3.0 | 13.0 | 0.01 | 0.08 | 0.08 | 86 | 1008.6 |
| 20260506171532 | 64 | 180 | 3.0 | 9.0 | 0.02 | 0.08 | 0.08 | 87 | 1008.6 |
| 20260506170024 | 64 | 292 | 3.0 | 11.0 | 0.04 | 0.08 | 0.08 | 88 | 1008.7 |
| 20260506164527 | 63 | 208 | 3.0 | 9.0 | 0.06 | 0.08 | 0.08 | 88 | 1008.7 |
| 20260506163018 | 63 | 187 | 3.0 | 7.0 | 0.06 | 0.07 | 0.07 | 87 | 1009.2 |
| 20260506161529 | 63 | 234 | 2.0 | 7.0 | 0.06 | 0.06 | 0.06 | 86 | 1009.8 |
| 20260506160039 | 63 | 227 | 2.0 | 6.0 | 0.04 | 0.04 | 0.04 | 84 | 1010.0 |
| 20260506154531 | 64 | 237 | 0.0 | 4.0 | 0.02 | 0.02 | 0.02 | 82 | 1010.0 |
| 20260506153022 | 65 | 281 | 2.0 | 10.0 | 0.01 | 0.01 | 0.01 | 77 | 1010.0 |
| 20260506151532 | 66 | 256 | 3.0 | 10.0 | 0.00 | 0.00 | 0.00 | 73 | 1009.9 |
| 20260506150031 | 67 | 175 | 3.0 | 12.0 | 0.00 | 0.00 | 0.00 | 73 | 1009.7 |
| 20260506144526 | 67 | 181 | 3.0 | 14.0 | 0.00 | 0.00 | 0.00 | 69 | 1010.1 |
| 20260506143038 | 68 | 248 | 7.0 | 21.0 | 0.00 | 0.00 | 0.00 | 68 | 1010.0 |
| 20260506140033 | 68 | 277 | 5.0 | 11.0 | 0.00 | 0.00 | 0.00 | 69 | 1009.8 |
| 20260506133024 | 67 | 248 | 3.0 | 14.0 | 0.00 | 0.00 | 0.00 | 71 | 1010.0 |
| 20260506131528 | 67 | 202 | 3.0 | 10.0 | 0.00 | 0.00 | 0.00 | 71 | 1010.0 |
| 20260506130027 | 67 | 267 | 5.0 | 11.0 | 0.00 | 0.00 | 0.00 | 71 | 1010.1 |
| 20260506124517 | 66 | 188 | 3.0 | 11.0 | 0.00 | 0.00 | 0.00 | 72 | 1010.2 |
| 20260506123024 | 66 | 202 | 4.0 | 11.0 | 0.00 | 0.00 | 0.00 | 72 | 1010.0 |
| 20260506121526 | 66 | 242 | 4.0 | 13.0 | 0.00 | 0.00 | 0.00 | 74 | 1009.9 |
| 20260506120026 | 65 | 274 | 4.0 | 17.0 | 0.00 | 0.00 | 0.00 | 74 | 1009.9 |
| 20260506114528 | 65 | 192 | 3.0 | 11.0 | 0.00 | 0.00 | 0.00 | 74 | 1009.8 |
| 20260506113026 | 65 | 175 | 5.0 | 17.0 | 0.00 | 0.00 | 0.00 | 75 | 1009.9 |
| 20260506111525 | 65 | 197 | 5.0 | 11.0 | 0.00 | 0.00 | 0.00 | 75 | 1009.9 |
| 20260506110016 | 65 | 223 | 3.0 | 10.0 | 0.00 | 0.00 | 0.00 | 76 | 1010.0 |
| 20260506104522 | 65 | 201 | 3.0 | 14.0 | 0.00 | 0.00 | 0.00 | 77 | 1009.9 |
| 20260506103015 | 64 | 151 | 4.0 | 13.0 | 0.00 | 0.00 | 0.00 | 78 | 1009.8 |
| 20260506100021 | 64 | 251 | 3.0 | 11.0 | 0.00 | 0.00 | 0.00 | 77 | 1009.8 |
| 20260506094523 | 64 | 219 | 4.0 | 13.0 | 0.00 | 0.00 | 0.00 | 77 | 1009.6 |
| 20260506093014 | 65 | 202 | 2.0 | 10.0 | 0.00 | 0.00 | 0.00 | 77 | 1009.7 |
| 20260506090021 | 65 | 203 | 3.0 | 11.0 | 0.00 | 0.00 | 0.00 | 76 | 1009.9 |
| 20260506084529 | 65 | 205 | 4.0 | 11.0 | 0.00 | 0.00 | 0.00 | 77 | 1009.8 |
| 20260506073013 | 66 | 178 | 3.0 | 8.0 | 0.00 | 0.00 | 0.00 | 74 | 1010.0 |
| 20260506061522 | 67 | 272 | 3.0 | 10.0 | 0.00 | 0.00 | 0.00 | 72 | 1010.1 |
| 20260506044523 | 68 | 128 | 3.0 | 14.0 | 0.00 | 0.00 | 0.00 | 67 | 1010.8 |
| 20260506043025 | 68 | 184 | 3.0 | 12.0 | 0.00 | 0.00 | 0.00 | 66 | 1010.8 |
| 20260506041531 | 69 | 144 | 5.0 | 12.0 | 0.00 | 0.00 | 0.00 | 65 | 1010.9 |
| 20260506040014 | 69 | 215 | 2.0 | 15.0 | 0.00 | 0.00 | 0.00 | 64 | 1010.7 |
| 20260506034518 | 69 | 275 | 4.0 | 21.0 | 0.00 | 0.00 | 0.00 | 62 | 1010.4 |
| 20260506033027 | 69 | 233 | 4.0 | 15.0 | 0.00 | 0.00 | 0.00 | 62 | 1010.5 |
| 20260506031526 | 70 | 264 | 3.0 | 14.0 | 0.00 | 0.00 | 0.00 | 61 | 1010.6 |
| 20260506030018 | 70 | 297 | 4.0 | 10.0 | 0.00 | 0.00 | 0.00 | 60 | 1010.6 |
| 20260506024519 | 70 | 167 | 3.0 | 14.0 | 0.00 | 0.00 | 0.00 | 59 | 1010.7 |
| 20260506023023 | 70 | 248 | 3.0 | 13.0 | 0.00 | 0.00 | 0.00 | 59 | 1010.7 |
| 20260506020021 | 70 | 167 | 3.0 | 14.0 | 0.00 | 0.00 | 0.00 | 58 | 1010.7 |
| 20260506014520 | 71 | 239 | 2.0 | 14.0 | 0.00 | 0.00 | 0.00 | 58 | 1010.6 |
| 20260506013029 | 72 | 196 | 5.0 | 14.0 | 0.00 | 0.00 | 0.00 | 56 | 1010.6 |
| 20260506011509 | 73 | 174 | 5.0 | 14.0 | 0.00 | 0.00 | 0.00 | 52 | 1010.3 |
| 20260506010023 | 74 | 217 | 5.0 | 11.0 | 0.00 | 0.00 | 0.00 | 49 | 1010.1 |
| 20260506004534 | 75 | 199 | 5.0 | 15.0 | 0.00 | 0.00 | 0.00 | 45 | 1010.1 |
| 20260506003024 | 76 | 226 | 3.0 | 12.0 | 0.00 | 0.00 | 0.00 | 43 | 1009.9 |
| 20260506001513 | 76 | 273 | 4.0 | 12.0 | 0.00 | 0.00 | 0.00 | 42 | 1009.5 |
| 20260506000020 | 76 | 223 | 3.0 | 10.0 | 0.00 | 0.00 | 0.00 | 42 | 1009.5 |
| 20260505234522 | 77 | 265 | 2.0 | 10.0 | 0.00 | 0.00 | 0.00 | 42 | 1009.3 |
| 20260505233026 | 77 | 267 | 3.0 | 10.0 | 0.00 | 0.00 | 0.00 | 42 | 1009.3 |
| 20260505231516 | 77 | 175 | 2.0 | 10.0 | 0.00 | 0.00 | 0.00 | 42 | 1009.2 |
| 20260505230018 | 78 | 235 | 3.0 | 14.0 | 0.00 | 0.00 | 0.00 | 41 | 1009.1 |
| 20260505224534 | 79 | 209 | 4.0 | 18.0 | 0.00 | 0.00 | 0.00 | 38 | 1009.0 |
| 20260505223036 | 80 | 194 | 6.0 | 20.0 | 0.00 | 0.00 | 0.00 | 36 | 1008.9 |
| 20260505221520 | 80 | 262 | 8.0 | 17.0 | 0.00 | 0.00 | 0.00 | 34 | 1008.7 |
| 20260505214546 | 80 | 271 | 6.0 | 19.0 | 0.00 | 0.00 | 0.00 | 34 | 1008.7 |
| 20260505213004 | 81 | 229 | 4.0 | 18.0 | 0.00 | 0.00 | 0.00 | 33 | 1008.7 |
| 20260505211503 | 82 | 225 | 5.0 | 18.0 | 0.00 | 0.00 | 0.00 | 32 | 1008.9 |
| 20260505210006 | 82 | 214 | 6.0 | 21.0 | 0.00 | 0.00 | 0.00 | 31 | 1008.6 |
| 20260505204510 | 82 | 272 | 11.0 | 24.0 | 0.00 | 0.00 | 0.00 | 30 | 1008.6 |
| 20260505203003 | 83 | 269 | 5.0 | 15.0 | 0.00 | 0.00 | 0.00 | 31 | 1008.5 |